"Pseudo-MPEC" for C0MKPX5
Created 2023 Nov 22 11:22:05 UT using Find_Orb
Click here for an explanation of pseudo-MPECs
Astrometry: C0MKPX5* C2023 11 13.34732003 15 04.288+26 05 12.66 ~BD9M 22.16GVNEOCPV00 C0MKPX5 C2023 11 13.35282403 15 02.732+26 05 27.82 ~BD9M 22.07GVNEOCPV00 C0MKPX5 C2023 11 13.35832703 15 01.130+26 05 43.30 ~BD9M 22.27GVNEOCPV00 C0MKPX5 C2023 11 13.36382803 14 59.550+26 05 58.16 ~BD9M 22.00GVNEOCPV00 C0MKPX5 mC2023 11 15.29246103 06 19.451+27 31 27.59 ~BF7b 21.91GVNEOCPV00 C0MKPX5 C2023 11 15.29384403 06 19.098+27 31 31.30 ~BFBM 22.16GVNEOCPV00 C0MKPX5 C2023 11 15.29445803 06 18.914+27 31 32.66 ~BFBM 22.02GVNEOCPV00 C0MKPX5 mC2023 11 15.29521603 06 18.702+27 31 34.50 ~BF7b 22.35GVNEOCPV00 C0MKPX5 mC2023 11 15.29797103 06 17.957+27 31 41.92 ~BF7b VNEOCPV00 C0MKPX5 mC2023 11 15.30072503 06 17.215+27 31 48.36 ~BF7b 21.61GVNEOCPV00 C0MKPX5 C2023 11 15.30209503 06 16.837+27 31 52.14 ~BFBM 22.51GVNEOCPV00 C0MKPX5 C2023 11 15.30270603 06 16.657+27 31 53.36 ~BFBM 21.88GVNEOCPV00 C0MKPX5 C2023 11 15.30759803 06 15.329+27 32 05.68 ~BFBM 22.26GVNEOCPV00 C0MKPX5 C2023 11 15.30821003 06 15.156+27 32 07.33 ~BFBM 22.14GVNEOCPV00 C0MKPX5 C2023 11 15.31310203 06 13.849+27 32 19.39 ~BFBM 21.95GVNEOCPV00 C0MKPX5 C2023 11 15.31371603 06 13.662+27 32 20.72 ~BFBM VNEOCPV00 C0MKPX5 DC2023 11 22XyM
AstrometryHVgIZwK$`
redacted;b7upA:mV36!,Z8##Jp5#x
695 C0MKPX5 DC2023 11 2283e;mb;s@U[1*+SDxcXheH#B%'8o^jarVe
clickrq^m's$1XW0Vu
695 C0MKPX5 DC2023 11 22hx``Gc(DuO(e6u
herel@ndXa
forkR?V0wfAr
explanation.?2o@
695 Station data: (695) Kitt Peak (N31.958395 W111.594670) US/Arizona. Measurer S. Deen. 3.5-m f/1.75 reflector + CCD0.9-m f/7.5 reflector + CCD4.0-m Ritchey-Chrétien + CCD0.61-m f/3.5 Schmidt + CCD2.3-m f/9 reflector + CCD. (V00) Kitt Peak-Bok (N31.963125 W111.600190) US/Arizona. Observers T. A. Pruyne, B. M. Africano, E. J. Christensen, G. A. Farneth, D. C. Fuls, A. R. Gibbs, A. D. Grauer, H. Gröller, J. A. Johnson, R. A. Kowalski, S. M. Larson, G. J. Leonard, D. Rankin, R. L. Seaman, F. C. Shelly, K. W. Wierzchoś. 2.25-m reflector + 4x4K mosaic CCD. Orbital elements: C0MKPX5 Perihelion 2023 Aug 7.79781 +/- 0.179 TT = 19:08:50 (JD 2460164.29781) Epoch 2023 Nov 22.0 TT = JDT 2460270.5 Earth MOID: 0.1414 AutoNEOCP M 61.47405918 +/- 0.6 (J2000 ecliptic) n 0.57883981 +/- 0.00474 Peri. 265.38791 +/- 0.17 a 1.42592642 +/- 0.00779 Node 47.15384 +/- 0.020 e 0.3678839 +/- 0.00349 Incl. 25.76744 +/- 0.22 P 1.70/621.92d H 23.68 G 0.15 U 9.1 q 0.90135100 +/- 7.63e-5 Q 1.95050183 +/- 0.0156 From 19 observations 2023 Nov. 13-22; mean residual 0".16
Residuals in arcseconds: 231113 V00 .10- .18+ 231115 V00 .16- .13- 231115 V00 .34+ .06- 231113 V00 .24+ .01- 231115 V00 .05- .37+ 231115 V00 .08+ .27- 231113 V00 .06- .13+ 231115 V00 .10+ .10- 231122 695 .15+ .15- 231113 V00 .08- .32- 231115 V00 .06+ .25+ 231122 695 .17+ .11+ 231115 V00 .22- .13- 231115 V00 .11- .06- 231122 695 .32- .03+ 231115 V00 .11+ .11+ 231115 V00 .01+ .00 231115 V00 .10- .07- 231115 V00 .06- .12+ Ephemerides (geocentric): Date (UTC) HH RA Dec delta r elong mag " sig PA ---- -------- ------------ ------------ ------ ------ ----- --- -------- 2023 11 22 11 02 38 30.085 +31 33 45.19 .38727 1.3588 160.4 23.1 .123 101 2023 11 22 12 02 38 21.706 +31 34 51.56 .38762 1.3590 160.3 23.1 .133 103 2023 11 22 13 02 38 13.342 +31 35 57.75 .38797 1.3592 160.3 23.1 .144 105 2023 11 22 14 02 38 04.994 +31 37 03.76 .38832 1.3594 160.2 23.1 .155 106 2023 11 22 15 02 37 56.663 +31 38 09.58 .38868 1.3597 160.1 23.1 .166 108 2023 11 22 16 02 37 48.346 +31 39 15.22 .38903 1.3599 160.1 23.1 .177 109 2023 11 22 17 02 37 40.046 +31 40 20.68 .38938 1.3601 160.0 23.1 .189 110 2023 11 22 18 02 37 31.762 +31 41 25.96 .38973 1.3604 159.9 23.1 .200 111 2023 11 22 19 02 37 23.493 +31 42 31.05 .39008 1.3606 159.9 23.1 .212 112 2023 11 22 20 02 37 15.240 +31 43 35.97 .39043 1.3608 159.8 23.1 .225 113 2023 11 22 21 02 37 07.002 +31 44 40.71 .39079 1.3611 159.8 23.1 .237 114 2023 11 22 22 02 36 58.781 +31 45 45.26 .39114 1.3613 159.7 23.1 .250 114 2023 11 22 23 02 36 50.575 +31 46 49.64 .39150 1.3615 159.6 23.1 .263 115 2023 11 23 00 02 36 42.385 +31 47 53.84 .39185 1.3617 159.6 23.1 .276 115 2023 11 23 01 02 36 34.211 +31 48 57.86 .39220 1.3620 159.5 23.1 .290 116 2023 11 23 02 02 36 26.053 +31 50 01.71 .39256 1.3622 159.5 23.1 .303 116 2023 11 23 03 02 36 17.910 +31 51 05.37 .39291 1.3624 159.4 23.2 .317 117 2023 11 23 04 02 36 09.783 +31 52 08.87 .39327 1.3627 159.3 23.2 .331 117 2023 11 23 05 02 36 01.672 +31 53 12.18 .39363 1.3629 159.3 23.2 .345 117 2023 11 23 06 02 35 53.577 +31 54 15.32 .39398 1.3631 159.2 23.2 .360 118 2023 11 23 07 02 35 45.497 +31 55 18.28 .39434 1.3633 159.2 23.2 .374 118 2023 11 23 08 02 35 37.434 +31 56 21.07 .39470 1.3636 159.1 23.2 .389 118 2023 11 23 09 02 35 29.386 +31 57 23.68 .39505 1.3638 159.0 23.2 .404 118 2023 11 23 10 02 35 21.353 +31 58 26.12 .39541 1.3640 159.0 23.2 .419 119 2023 11 23 11 02 35 13.337 +31 59 28.39 .39577 1.3643 158.9 23.2 .435 119 2023 11 23 12 02 35 05.336 +32 00 30.48 .39613 1.3645 158.9 23.2 .450 119 2023 11 23 13 02 34 57.351 +32 01 32.40 .39649 1.3647 158.8 23.2 .466 119 2023 11 23 14 02 34 49.382 +32 02 34.15 .39685 1.3650 158.7 23.2 .482 119 2023 11 23 15 02 34 41.428 +32 03 35.73 .39720 1.3652 158.7 23.2 .498 119 2023 11 23 16 02 34 33.491 +32 04 37.13 .39756 1.3654 158.6 23.2 .515 119 2023 11 23 17 02 34 25.569 +32 05 38.37 .39792 1.3656 158.6 23.2 .531 120 2023 11 23 18 02 34 17.662 +32 06 39.43 .39829 1.3659 158.5 23.2 .548 120 2023 11 23 19 02 34 09.772 +32 07 40.33 .39865 1.3661 158.4 23.2 .565 120 2023 11 23 20 02 34 01.897 +32 08 41.05 .39901 1.3663 158.4 23.2 .582 120 2023 11 23 21 02 33 54.038 +32 09 41.61 .39937 1.3666 158.3 23.2 .600 120 2023 11 23 22 02 33 46.195 +32 10 42.00 .39973 1.3668 158.3 23.2 .617 120 2023 11 23 23 02 33 38.367 +32 11 42.21 .40009 1.3670 158.2 23.2 .635 120 2023 11 24 00 02 33 30.556 +32 12 42.27 .40046 1.3672 158.1 23.2 .653 120 2023 11 24 01 02 33 22.759 +32 13 42.15 .40082 1.3675 158.1 23.2 .671 120 2023 11 24 02 02 33 14.979 +32 14 41.87 .40118 1.3677 158.0 23.2 .690 120 2023 11 24 03 02 33 07.214 +32 15 41.42 .40155 1.3679 158.0 23.2 .708 120 2023 11 24 04 02 32 59.465 +32 16 40.80 .40191 1.3682 157.9 23.2 .727 120 2023 11 24 05 02 32 51.732 +32 17 40.02 .40227 1.3684 157.8 23.2 .746 120 2023 11 24 06 02 32 44.015 +32 18 39.07 .40264 1.3686 157.8 23.3 .765 120 2023 11 24 07 02 32 36.313 +32 19 37.96 .40300 1.3688 157.7 23.3 .785 120 2023 11 24 08 02 32 28.627 +32 20 36.69 .40337 1.3691 157.7 23.3 .804 120 2023 11 24 09 02 32 20.956 +32 21 35.25 .40374 1.3693 157.6 23.3 .824 121 2023 11 24 10 02 32 13.302 +32 22 33.65 .40410 1.3695 157.5 23.3 .844 121